DLH831 EDDM-LGMK

Flight info

Callsign DLH831
Flight time 2h 2m
Altitude 37000
Route ROTAX3S ROTAX L603 LATLO DCT OBEDI DCT KFT DCT MAGAM DCT TIVNU DCT KEB DCT MEDUX UM867 KOGAT DCT ERANA DCT TSL UL617 SKP UN137 AGAPU
Aircraft A320/M-SDE3FGHIRWY/LB1

Departure

Time 2026-05-07 16:38
Airport Munich Airport (EDDM)

Arrival

Time 2026-05-07 18:40
Airport Mykonos Island National Airport (LGMK)
Time Latitude Longitude Altitude Speed Heading
2026-05-07 16:06 48.35162 11.79364 1473 ft 0 kts 263°
2026-05-07 16:25 48.35164 11.79394 1474 ft 4 kts 263°
2026-05-07 16:25 48.35167 11.79434 1477 ft 3 kts 263°
2026-05-07 16:26 48.35170 11.79466 1473 ft 4 kts 248°
2026-05-07 16:26 48.35185 11.79496 1484 ft 4 kts 196°
2026-05-07 16:26 48.35209 11.79496 1481 ft 4 kts 173°
2026-05-07 16:26 48.35215 11.79495 1480 ft 0 kts 173°
2026-05-07 16:32 48.35196 11.79506 1471 ft 6 kts 148°
2026-05-07 16:32 48.35133 11.79565 1479 ft 16 kts 148°
2026-05-07 16:33 48.35029 11.79659 1478 ft 16 kts 156°
2026-05-07 16:33 48.34927 11.79682 1483 ft 13 kts 173°
2026-05-07 16:33 48.34896 11.79687 1485 ft 0 kts 174°
2026-05-07 16:34 48.34887 11.79688 1485 ft 4 kts 174°
2026-05-07 16:34 48.34834 11.79697 1485 ft 9 kts 171°
2026-05-07 16:35 48.34807 11.79758 1479 ft 7 kts 91°
2026-05-07 16:35 48.34812 11.79820 1475 ft 6 kts 82°
2026-05-07 16:35 48.34819 11.79923 1485 ft 14 kts 83°
2026-05-07 16:35 48.34831 11.80085 1485 ft 16 kts 86°
2026-05-07 16:36 48.34780 11.80217 1476 ft 14 kts 135°
2026-05-07 16:36 48.34695 11.80248 1483 ft 12 kts 173°
2026-05-07 16:36 48.34619 11.80261 1473 ft 12 kts 173°
2026-05-07 16:36 48.34528 11.80276 1485 ft 16 kts 176°
2026-05-07 16:37 48.34459 11.80191 1480 ft 13 kts 260°
2026-05-07 16:37 48.34442 11.79948 1485 ft 51 kts 263°
2026-05-07 16:37 48.34379 11.79091 1485 ft 114 kts 264°
2026-05-07 16:37 48.34269 11.77640 1486 ft 163 kts 264°
2026-05-07 16:38 48.34119 11.75855 1968 ft 171 kts 265°
2026-05-07 16:38 48.33972 11.74068 2864 ft 175 kts 265°
2026-05-07 16:38 48.33730 11.72131 3056 ft 204 kts 249°
2026-05-07 16:38 48.32663 11.70659 3534 ft 222 kts 200°
2026-05-07 16:39 48.31121 11.70307 4358 ft 226 kts 182°
2026-05-07 16:39 48.29534 11.70376 5148 ft 229 kts 174°
2026-05-07 16:39 48.28006 11.71097 5809 ft 241 kts 150°
2026-05-07 16:39 48.26615 11.72758 6097 ft 267 kts 142°
2026-05-07 16:40 48.25126 11.74492 6751 ft 274 kts 146°
2026-05-07 16:40 48.23589 11.76124 7550 ft 276 kts 148°
2026-05-07 16:40 48.21989 11.77747 8374 ft 279 kts 149°
2026-05-07 16:40 48.20361 11.79375 9173 ft 283 kts 148°
2026-05-07 16:41 48.18958 11.81464 9958 ft 293 kts 126°
2026-05-07 16:41 48.17916 11.84166 10428 ft 311 kts 122°
2026-05-07 16:41 48.16823 11.87109 10631 ft 334 kts 122°
2026-05-07 16:41 48.15677 11.90229 11072 ft 346 kts 122°
2026-05-07 16:42 48.14507 11.93421 11732 ft 352 kts 122°
2026-05-07 16:42 48.13317 11.96654 12393 ft 356 kts 122°
2026-05-07 16:42 48.12110 11.99924 13046 ft 361 kts 122°
2026-05-07 16:42 48.10888 12.03227 13720 ft 365 kts 122°
2026-05-07 16:43 48.09666 12.06521 14310 ft 369 kts 122°
2026-05-07 16:43 48.08414 12.09886 14897 ft 372 kts 122°
2026-05-07 16:43 48.07145 12.13282 15504 ft 375 kts 122°
2026-05-07 16:43 48.05866 12.16701 16098 ft 378 kts 123°
2026-05-07 16:44 48.04576 12.20154 16698 ft 382 kts 123°
2026-05-07 16:44 48.03274 12.23635 17268 ft 385 kts 123°
2026-05-07 16:44 48.01962 12.27139 17861 ft 388 kts 123°
2026-05-07 16:44 48.00632 12.30686 18416 ft 391 kts 123°
2026-05-07 16:45 47.99298 12.34240 18905 ft 394 kts 123°
2026-05-07 16:45 47.97850 12.37723 19381 ft 394 kts 131°
2026-05-07 16:45 47.96053 12.40785 19857 ft 391 kts 141°
2026-05-07 16:45 47.94062 12.43565 20326 ft 393 kts 142°
2026-05-07 16:46 47.92053 12.46360 20803 ft 396 kts 142°
2026-05-07 16:46 47.90036 12.49165 21278 ft 399 kts 142°
2026-05-07 16:46 47.88001 12.51995 21740 ft 401 kts 142°
2026-05-07 16:46 47.85952 12.54841 22197 ft 404 kts 142°
2026-05-07 16:47 47.83891 12.57701 22663 ft 406 kts 142°
2026-05-07 16:47 47.81817 12.60585 23117 ft 409 kts 142°
2026-05-07 16:47 47.79767 12.63532 23561 ft 412 kts 140°
2026-05-07 16:47 47.77759 12.66520 23935 ft 415 kts 140°
2026-05-07 16:48 47.75701 12.69634 24319 ft 418 kts 140°
2026-05-07 16:48 47.73673 12.72721 24667 ft 419 kts 140°
2026-05-07 16:48 47.71649 12.75789 24995 ft 421 kts 140°
2026-05-07 16:48 47.69584 12.78896 25303 ft 423 kts 141°
2026-05-07 16:49 47.67504 12.81999 25628 ft 425 kts 141°
2026-05-07 16:49 47.65401 12.85116 25940 ft 427 kts 141°
2026-05-07 16:49 47.63292 12.88231 26314 ft 429 kts 141°
2026-05-07 16:49 47.61170 12.91354 26661 ft 431 kts 141°
2026-05-07 16:50 47.59041 12.94486 27005 ft 433 kts 141°
2026-05-07 16:50 47.56904 12.97631 27358 ft 435 kts 141°
2026-05-07 16:50 47.54752 13.00802 27694 ft 437 kts 141°
2026-05-07 16:50 47.52613 13.03952 27998 ft 438 kts 142°
2026-05-07 16:51 47.50443 13.07147 28325 ft 440 kts 142°
2026-05-07 16:51 47.48271 13.10342 28652 ft 442 kts 142°
2026-05-07 16:51 47.46082 13.13560 28926 ft 444 kts 142°
2026-05-07 16:51 47.43887 13.16784 29178 ft 446 kts 142°
2026-05-07 16:52 47.41681 13.20014 29465 ft 447 kts 142°
2026-05-07 16:52 47.39460 13.23253 29743 ft 449 kts 142°
2026-05-07 16:52 47.37232 13.26491 30036 ft 451 kts 142°
2026-05-07 16:52 47.34993 13.29739 30278 ft 452 kts 142°
2026-05-07 16:53 47.32763 13.33030 30502 ft 456 kts 139°
2026-05-07 16:53 47.30689 13.36621 30728 ft 460 kts 136°
2026-05-07 16:53 47.28637 13.40235 30985 ft 459 kts 136°
2026-05-07 16:53 47.26617 13.43779 31298 ft 458 kts 136°
2026-05-07 16:54 47.24566 13.47357 31646 ft 457 kts 136°
2026-05-07 16:54 47.22514 13.50926 31883 ft 457 kts 136°
2026-05-07 16:54 47.20462 13.54489 32135 ft 457 kts 136°
2026-05-07 16:54 47.18404 13.58058 32341 ft 457 kts 136°
2026-05-07 16:55 47.16344 13.61629 32500 ft 458 kts 136°
2026-05-07 16:55 47.14288 13.65191 32713 ft 458 kts 136°
2026-05-07 16:55 47.12229 13.68759 32915 ft 453 kts 136°
2026-05-07 16:55 47.10207 13.72268 33040 ft 450 kts 137°
2026-05-07 16:56 47.08169 13.75790 33167 ft 454 kts 137°
2026-05-07 16:56 47.06111 13.79325 33352 ft 457 kts 137°
2026-05-07 16:56 47.01969 13.86432 33861 ft 458 kts 137°
2026-05-07 16:57 46.99899 13.89983 34133 ft 458 kts 136°
2026-05-07 16:57 46.97833 13.93530 34394 ft 458 kts 136°
2026-05-07 16:57 46.95765 13.97077 34657 ft 457 kts 136°
2026-05-07 16:57 46.93702 14.00610 34877 ft 456 kts 136°
2026-05-07 16:58 46.91642 14.04129 35130 ft 455 kts 136°
2026-05-07 16:58 46.89614 14.07591 35389 ft 453 kts 136°
2026-05-07 16:58 46.87560 14.11092 35627 ft 452 kts 136°
2026-05-07 16:58 46.85517 14.14571 35856 ft 452 kts 136°
2026-05-07 16:59 46.83473 14.18048 36067 ft 451 kts 136°
2026-05-07 16:59 46.81427 14.21521 36234 ft 451 kts 136°
2026-05-07 16:59 46.79380 14.24987 36433 ft 450 kts 136°
2026-05-07 16:59 46.77332 14.28452 36629 ft 450 kts 136°
2026-05-07 17:00 46.75288 14.31906 36829 ft 450 kts 136°
2026-05-07 17:00 46.73235 14.35367 36956 ft 450 kts 136°
2026-05-07 17:00 46.69833 14.41098 36973 ft 449 kts 136°
2026-05-07 17:01 46.65745 14.47977 36971 ft 449 kts 136°
2026-05-07 17:01 46.61658 14.54866 36966 ft 450 kts 135°
2026-05-07 17:02 46.57704 14.61955 36956 ft 452 kts 133°
2026-05-07 17:02 46.53838 14.69171 36940 ft 452 kts 133°
2026-05-07 17:03 46.49942 14.76352 36933 ft 452 kts 134°
2026-05-07 17:03 46.46012 14.83460 36922 ft 452 kts 134°
2026-05-07 17:04 46.42091 14.90512 36922 ft 452 kts 134°
2026-05-07 17:04 46.38140 14.97627 36928 ft 453 kts 134°
2026-05-07 17:05 46.34188 15.04747 36930 ft 453 kts 134°
2026-05-07 17:05 46.30228 15.11854 36928 ft 454 kts 133°
2026-05-07 17:06 46.26265 15.18953 36934 ft 454 kts 133°
2026-05-07 17:06 46.22291 15.26050 36944 ft 454 kts 133°
2026-05-07 17:07 46.18336 15.33084 36952 ft 454 kts 133°
2026-05-07 17:07 46.14349 15.40151 36957 ft 454 kts 133°
2026-05-07 17:08 46.10353 15.47225 36961 ft 455 kts 134°
2026-05-07 17:08 46.06354 15.54297 36965 ft 455 kts 133°
2026-05-07 17:09 46.02348 15.61362 36964 ft 455 kts 134°
2026-05-07 17:09 45.98492 15.68134 36967 ft 456 kts 134°
2026-05-07 17:10 45.94127 15.74645 36966 ft 451 kts 141°
2026-05-07 17:10 45.89592 15.80878 36966 ft 452 kts 141°
2026-05-07 17:11 45.85049 15.87110 36986 ft 452 kts 141°
2026-05-07 17:11 45.80536 15.93306 36991 ft 452 kts 141°
2026-05-07 17:12 45.75982 15.99538 36997 ft 452 kts 141°
2026-05-07 17:12 45.71423 16.05743 36996 ft 452 kts 141°
2026-05-07 17:13 45.66864 16.11947 37002 ft 452 kts 141°
2026-05-07 17:13 45.62302 16.18137 37002 ft 452 kts 141°
2026-05-07 17:14 45.57740 16.24325 37004 ft 452 kts 141°
2026-05-07 17:14 45.53201 16.30460 37004 ft 452 kts 141°
2026-05-07 17:15 45.48631 16.36630 37007 ft 453 kts 141°
2026-05-07 17:15 45.44052 16.42794 37010 ft 453 kts 141°
2026-05-07 17:16 45.39461 16.48947 37011 ft 453 kts 142°
2026-05-07 17:16 45.34862 16.55094 37013 ft 453 kts 142°
2026-05-07 17:17 45.30289 16.61198 37010 ft 454 kts 142°
2026-05-07 17:17 45.25686 16.67343 37018 ft 454 kts 142°
2026-05-07 17:18 45.21077 16.73479 37017 ft 454 kts 142°
2026-05-07 17:18 45.16453 16.79605 37016 ft 455 kts 142°
2026-05-07 17:19 45.11818 16.85729 37019 ft 455 kts 142°
2026-05-07 17:19 45.07214 16.91801 37024 ft 456 kts 142°
2026-05-07 17:20 45.02579 16.97910 37022 ft 456 kts 142°
2026-05-07 17:20 44.97934 17.04019 37030 ft 457 kts 142°
2026-05-07 17:21 44.93294 17.10189 37030 ft 458 kts 141°
2026-05-07 17:21 44.88742 17.16516 37036 ft 459 kts 140°
2026-05-07 17:22 44.84206 17.22860 37022 ft 460 kts 141°
2026-05-07 17:22 44.79639 17.29159 37025 ft 460 kts 141°
2026-05-07 17:23 44.75043 17.35440 37028 ft 460 kts 141°
2026-05-07 17:23 44.70475 17.41679 37034 ft 460 kts 141°
2026-05-07 17:24 44.65878 17.47953 37034 ft 460 kts 141°
2026-05-07 17:24 44.61279 17.54214 37038 ft 460 kts 142°
2026-05-07 17:25 44.56675 17.60476 37036 ft 461 kts 141°
2026-05-07 17:25 44.52068 17.66716 37031 ft 461 kts 141°
2026-05-07 17:26 44.47448 17.72954 37031 ft 461 kts 141°
2026-05-07 17:26 44.42814 17.79200 37036 ft 462 kts 141°
2026-05-07 17:27 44.38184 17.85442 37035 ft 462 kts 141°
2026-05-07 17:27 44.33549 17.91661 37039 ft 462 kts 141°
2026-05-07 17:28 44.28902 17.97869 37040 ft 462 kts 141°
2026-05-07 17:28 44.24291 18.04031 37040 ft 462 kts 141°
2026-05-07 17:29 44.19641 18.10240 37036 ft 462 kts 141°
2026-05-07 17:29 44.14999 18.16424 37035 ft 463 kts 142°
2026-05-07 17:30 44.10333 18.22615 37040 ft 463 kts 142°
2026-05-07 17:30 44.05662 18.28791 37043 ft 463 kts 142°
2026-05-07 17:31 44.00987 18.34964 37054 ft 463 kts 142°
2026-05-07 17:31 43.96344 18.41089 37043 ft 463 kts 141°
2026-05-07 17:32 43.91665 18.47256 37043 ft 464 kts 141°
2026-05-07 17:32 43.87814 18.52469 37041 ft 465 kts 140°
2026-05-07 17:33 43.82439 18.59861 37041 ft 466 kts 140°
2026-05-07 17:33 43.77821 18.66156 37030 ft 466 kts 141°
2026-05-07 17:34 43.73165 18.72438 37026 ft 468 kts 141°
2026-05-07 17:34 43.68522 18.78679 37020 ft 470 kts 141°
2026-05-07 17:35 43.63830 18.84986 37022 ft 471 kts 141°
2026-05-07 17:35 43.59121 18.91318 37023 ft 472 kts 141°
2026-05-07 17:36 43.54413 18.97621 37027 ft 472 kts 141°
2026-05-07 17:36 43.49680 19.03940 37040 ft 473 kts 141°
2026-05-07 17:37 43.44985 19.10212 37030 ft 474 kts 141°
2026-05-07 17:37 43.40217 19.16551 37033 ft 474 kts 141°
2026-05-07 17:38 43.35498 19.22808 37030 ft 475 kts 141°
2026-05-07 17:38 43.30742 19.29114 37031 ft 475 kts 141°
2026-05-07 17:39 43.25976 19.35412 37036 ft 476 kts 141°
2026-05-07 17:39 43.21196 19.41709 37036 ft 477 kts 141°
2026-05-07 17:40 43.16412 19.48001 37040 ft 477 kts 141°
2026-05-07 17:40 43.11615 19.54304 37046 ft 478 kts 141°
2026-05-07 17:41 43.06806 19.60599 37050 ft 479 kts 141°
2026-05-07 17:41 43.01980 19.66900 37049 ft 479 kts 141°
2026-05-07 17:42 42.97153 19.73193 37046 ft 480 kts 141°
2026-05-07 17:42 42.92309 19.79489 37053 ft 480 kts 141°
2026-05-07 17:43 42.87465 19.85758 37049 ft 480 kts 141°
2026-05-07 17:43 42.82616 19.92035 37059 ft 482 kts 141°
2026-05-07 17:44 42.77785 19.98283 37063 ft 482 kts 141°
2026-05-07 17:44 42.73125 20.04875 37054 ft 487 kts 134°
2026-05-07 17:45 42.68859 20.11945 37063 ft 489 kts 134°
2026-05-07 17:45 42.64529 20.19073 37041 ft 489 kts 134°
2026-05-07 17:46 42.60183 20.26204 37049 ft 490 kts 134°
2026-05-07 17:46 42.55834 20.33349 37065 ft 493 kts 134°
2026-05-07 17:47 42.51495 20.40470 37071 ft 493 kts 134°
2026-05-07 17:47 42.47106 20.47638 37075 ft 494 kts 134°
2026-05-07 17:48 42.42702 20.54801 37071 ft 495 kts 134°
2026-05-07 17:48 42.38288 20.61973 37071 ft 496 kts 134°
2026-05-07 17:49 42.33865 20.69150 37071 ft 497 kts 134°
2026-05-07 17:49 42.29438 20.76321 37077 ft 498 kts 134°
2026-05-07 17:50 42.25014 20.83462 37078 ft 499 kts 135°
2026-05-07 17:50 42.20543 20.90644 37081 ft 500 kts 135°
2026-05-07 17:51 42.16051 20.97837 37085 ft 502 kts 135°
2026-05-07 17:51 42.11537 21.05031 37071 ft 501 kts 138°
2026-05-07 17:52 42.07406 21.10447 37080 ft 499 kts 142°
2026-05-07 17:52 42.02339 21.16876 37083 ft 502 kts 143°
2026-05-07 17:53 41.97248 21.23321 37083 ft 504 kts 143°
2026-05-07 17:53 41.92129 21.29789 37084 ft 506 kts 143°
2026-05-07 17:54 41.86983 21.36286 37084 ft 508 kts 143°
2026-05-07 17:54 41.81823 21.42797 37080 ft 511 kts 142°
2026-05-07 17:55 41.76663 21.49285 37080 ft 512 kts 143°
2026-05-07 17:55 41.71447 21.55806 37083 ft 514 kts 143°
2026-05-07 17:56 41.66222 21.62336 37083 ft 516 kts 143°
2026-05-07 17:56 41.60962 21.68901 37081 ft 518 kts 143°
2026-05-07 17:57 41.55668 21.75485 37088 ft 520 kts 143°
2026-05-07 17:57 41.50350 21.82072 37083 ft 522 kts 143°
2026-05-07 17:58 41.45057 21.88628 37085 ft 523 kts 143°
2026-05-07 17:58 41.39706 21.95254 37084 ft 525 kts 143°
2026-05-07 17:59 41.34351 22.01852 37088 ft 527 kts 143°
2026-05-07 17:59 41.28942 22.08482 37088 ft 528 kts 143°
2026-05-07 18:00 41.23557 22.15086 37093 ft 530 kts 143°
2026-05-07 18:00 41.18135 22.21726 37094 ft 531 kts 143°
2026-05-07 18:01 41.12619 22.28220 37093 ft 529 kts 147°
2026-05-07 18:01 41.06876 22.34340 37106 ft 529 kts 149°
2026-05-07 18:02 40.98181 22.43391 37090 ft 531 kts 148°
2026-05-07 18:03 40.92420 22.49559 37091 ft 533 kts 147°
2026-05-07 18:03 40.86667 22.55760 37092 ft 534 kts 147°
2026-05-07 18:04 40.80930 22.61885 37098 ft 534 kts 147°
2026-05-07 18:04 40.75129 22.68036 37103 ft 535 kts 147°
2026-05-07 18:05 40.69324 22.74183 37103 ft 535 kts 147°
2026-05-07 18:05 40.63494 22.80350 37104 ft 536 kts 147°
2026-05-07 18:06 40.57684 22.86484 37106 ft 536 kts 147°
2026-05-07 18:06 40.51852 22.92621 37108 ft 537 kts 147°
2026-05-07 18:07 40.45905 22.98410 37105 ft 528 kts 157°
2026-05-07 18:07 40.39328 23.02271 37104 ft 515 kts 168°
2026-05-07 18:08 40.32636 23.05583 37098 ft 516 kts 168°
2026-05-07 18:08 40.25907 23.08937 37096 ft 516 kts 168°
2026-05-07 18:09 40.19189 23.12278 37099 ft 517 kts 168°
2026-05-07 18:09 40.12457 23.15615 37106 ft 517 kts 168°
2026-05-07 18:10 40.05760 23.18922 37106 ft 518 kts 168°
2026-05-07 18:10 39.99024 23.22241 37118 ft 518 kts 168°
2026-05-07 18:11 39.92274 23.25558 37115 ft 518 kts 168°
2026-05-07 18:11 39.85523 23.28868 37115 ft 518 kts 168°
2026-05-07 18:12 39.78771 23.32167 37118 ft 518 kts 168°
2026-05-07 18:12 39.72021 23.35464 37114 ft 518 kts 168°
2026-05-07 18:13 39.65281 23.38756 37116 ft 518 kts 168°
2026-05-07 18:13 39.58516 23.42050 37120 ft 518 kts 168°
2026-05-07 18:14 39.51751 23.45318 37117 ft 518 kts 168°
2026-05-07 18:14 39.45000 23.48589 37113 ft 518 kts 168°
2026-05-07 18:15 39.38292 23.51840 37107 ft 518 kts 168°
2026-05-07 18:15 39.31528 23.55114 37096 ft 518 kts 168°
2026-05-07 18:16 39.24750 23.58385 37091 ft 518 kts 168°
2026-05-07 18:16 39.18113 23.61920 37089 ft 528 kts 157°
2026-05-07 18:17 39.12010 23.67358 37089 ft 536 kts 148°
2026-05-07 18:17 39.06007 23.73069 37090 ft 535 kts 148°
2026-05-07 18:17 39.03000 23.75899 36949 ft 536 kts 149°
2026-05-07 18:18 38.99992 23.78716 36691 ft 536 kts 149°
2026-05-07 18:18 38.96977 23.81540 36437 ft 536 kts 149°
2026-05-07 18:18 38.93999 23.84333 36190 ft 536 kts 148°
2026-05-07 18:18 38.90987 23.87163 35937 ft 537 kts 148°
2026-05-07 18:19 38.87974 23.89997 35604 ft 538 kts 148°
2026-05-07 18:19 38.84926 23.92861 34488 ft 548 kts 148°
2026-05-07 18:19 38.81821 23.95773 33372 ft 557 kts 148°
2026-05-07 18:19 38.78709 23.98692 32856 ft 549 kts 148°
2026-05-07 18:20 38.75660 24.01561 32230 ft 538 kts 147°
2026-05-07 18:20 38.72665 24.04376 31363 ft 526 kts 147°
2026-05-07 18:20 38.69761 24.07103 30655 ft 510 kts 147°
2026-05-07 18:20 38.66940 24.09744 29887 ft 496 kts 147°
2026-05-07 18:21 38.64192 24.12307 29073 ft 482 kts 147°
2026-05-07 18:21 38.61537 24.14783 28686 ft 461 kts 147°
2026-05-07 18:21 38.58973 24.17166 28063 ft 451 kts 147°
2026-05-07 18:21 38.56458 24.19495 27502 ft 441 kts 147°
2026-05-07 18:22 38.54005 24.21766 26961 ft 431 kts 148°
2026-05-07 18:22 38.52409 24.23242 26606 ft 425 kts 148°
2026-05-07 18:22 38.49277 24.26137 25936 ft 413 kts 148°
2026-05-07 18:22 38.46976 24.28263 25447 ft 405 kts 148°
2026-05-07 18:23 38.44718 24.30351 24976 ft 397 kts 148°
2026-05-07 18:23 38.42474 24.32411 24517 ft 394 kts 150°
2026-05-07 18:23 38.40154 24.34220 24085 ft 389 kts 154°
2026-05-07 18:23 38.37836 24.35969 23668 ft 387 kts 154°
2026-05-07 18:24 38.35522 24.37718 23212 ft 384 kts 153°
2026-05-07 18:24 38.33234 24.39450 22794 ft 380 kts 153°
2026-05-07 18:24 38.30958 24.41174 22371 ft 377 kts 153°
2026-05-07 18:24 38.28742 24.42851 21948 ft 375 kts 153°
2026-05-07 18:25 38.26508 24.44537 21536 ft 373 kts 153°
2026-05-07 18:25 38.24283 24.46216 21102 ft 371 kts 153°
2026-05-07 18:25 38.22064 24.47885 20672 ft 369 kts 153°
2026-05-07 18:25 38.19852 24.49546 20236 ft 368 kts 153°
2026-05-07 18:26 38.17648 24.51203 19795 ft 368 kts 152°
2026-05-07 18:26 38.15452 24.52853 19352 ft 367 kts 152°
2026-05-07 18:26 38.13251 24.54507 18907 ft 368 kts 152°
2026-05-07 18:26 38.11045 24.56162 18452 ft 368 kts 152°
2026-05-07 18:27 38.08846 24.57808 17979 ft 366 kts 151°
2026-05-07 18:27 38.06652 24.59450 17530 ft 364 kts 151°
2026-05-07 18:27 38.04479 24.61074 17085 ft 362 kts 151°
2026-05-07 18:27 38.03041 24.62150 16802 ft 361 kts 151°
2026-05-07 18:28 38.00158 24.64307 16226 ft 359 kts 151°
2026-05-07 18:28 37.98009 24.65916 15798 ft 358 kts 151°
2026-05-07 18:28 37.95859 24.67525 15362 ft 357 kts 151°
2026-05-07 18:28 37.93720 24.69125 14935 ft 356 kts 151°
2026-05-07 18:29 37.91585 24.70721 14503 ft 356 kts 151°
2026-05-07 18:29 37.89454 24.72312 14063 ft 356 kts 151°
2026-05-07 18:29 37.87330 24.73892 13597 ft 355 kts 151°
2026-05-07 18:29 37.85198 24.75475 13144 ft 352 kts 151°
2026-05-07 18:30 37.83091 24.77041 12700 ft 350 kts 151°
2026-05-07 18:30 37.81005 24.78593 12251 ft 348 kts 151°
2026-05-07 18:30 37.78925 24.80140 11808 ft 346 kts 151°
2026-05-07 18:30 37.76853 24.81677 11364 ft 344 kts 151°
2026-05-07 18:31 37.74798 24.83198 10911 ft 342 kts 151°
2026-05-07 18:31 37.72748 24.84716 10463 ft 340 kts 151°
2026-05-07 18:31 37.70760 24.86190 10308 ft 329 kts 151°
2026-05-07 18:31 37.68822 24.87631 10190 ft 318 kts 151°
2026-05-07 18:32 37.66951 24.89019 10074 ft 307 kts 151°
2026-05-07 18:32 37.65135 24.90363 9736 ft 299 kts 151°
2026-05-07 18:32 37.63350 24.91681 9099 ft 295 kts 151°
2026-05-07 18:32 37.61595 24.92973 8609 ft 289 kts 151°
2026-05-07 18:33 37.59871 24.94244 8196 ft 286 kts 151°
2026-05-07 18:33 37.58164 24.95505 7784 ft 283 kts 151°
2026-05-07 18:33 37.56462 24.96762 7379 ft 283 kts 151°
2026-05-07 18:33 37.54771 24.98010 6954 ft 283 kts 151°
2026-05-07 18:34 37.53073 24.99260 6612 ft 280 kts 151°
2026-05-07 18:34 37.51429 25.00469 6386 ft 265 kts 151°
2026-05-07 18:34 37.49910 25.01674 6059 ft 256 kts 141°
2026-05-07 18:34 37.48880 25.03444 5904 ft 253 kts 114°
2026-05-07 18:35 37.48545 25.05634 5533 ft 264 kts 87°
2026-05-07 18:35 37.49046 25.07857 4972 ft 265 kts 69°
2026-05-07 18:35 37.49730 25.09967 4610 ft 253 kts 69°
2026-05-07 18:35 37.50386 25.11968 4463 ft 241 kts 69°
2026-05-07 18:36 37.51020 25.13906 4335 ft 238 kts 69°
2026-05-07 18:36 37.51577 25.15819 4177 ft 232 kts 74°
2026-05-07 18:36 37.52050 25.17784 3628 ft 237 kts 75°
2026-05-07 18:36 37.52521 25.19785 3109 ft 239 kts 75°
2026-05-07 18:37 37.52988 25.21789 2759 ft 233 kts 77°
2026-05-07 18:37 37.53098 25.23726 2706 ft 215 kts 101°
2026-05-07 18:37 37.52828 25.25546 2659 ft 207 kts 103°
2026-05-07 18:37 37.52460 25.27206 2536 ft 189 kts 118°
2026-05-07 18:38 37.51763 25.28545 2279 ft 177 kts 136°
2026-05-07 18:38 37.50864 25.29505 2019 ft 168 kts 150°
2026-05-07 18:38 37.49914 25.30311 1783 ft 160 kts 149°
2026-05-07 18:38 37.49014 25.31077 1552 ft 154 kts 149°
2026-05-07 18:39 37.48157 25.31859 1362 ft 148 kts 147°
2026-05-07 18:39 37.47339 25.32596 1142 ft 144 kts 147°
2026-05-07 18:39 37.46500 25.33324 934 ft 146 kts 150°
2026-05-07 18:39 37.45612 25.33904 711 ft 143 kts 160°
2026-05-07 18:40 37.44688 25.34311 490 ft 139 kts 162°
2026-05-07 18:40 37.43831 25.34684 411 ft 106 kts 161°
2026-05-07 18:40 37.43417 25.34867 409 ft 28 kts 161°
2026-05-07 18:40 37.43237 25.34947 413 ft 27 kts 160°
2026-05-07 18:41 37.43055 25.35027 414 ft 28 kts 160°
2026-05-07 18:41 37.42871 25.35108 412 ft 24 kts 160°
2026-05-07 18:41 37.42776 25.35172 410 ft 12 kts 128°
2026-05-07 18:41 37.42735 25.35163 410 ft 9 kts 310°
2026-05-07 18:42 37.42785 25.35143 411 ft 12 kts 343°
2026-05-07 18:42 37.42919 25.35087 413 ft 20 kts 341°
2026-05-07 18:42 37.43068 25.35020 413 ft 24 kts 340°
2026-05-07 18:42 37.43233 25.34948 409 ft 25 kts 341°
2026-05-07 18:43 37.43365 25.34889 412 ft 13 kts 339°
2026-05-07 18:43 37.43398 25.34834 411 ft 11 kts 292°
2026-05-07 18:43 37.43425 25.34756 408 ft 7 kts 304°
2026-05-07 18:43 37.43465 25.34730 408 ft 6 kts 336°
2026-05-07 18:44 37.43500 25.34712 408 ft 5 kts 342°
2026-05-07 18:44 37.43528 25.34702 408 ft 4 kts 343°
2026-05-07 18:44 37.43549 25.34693 408 ft 3 kts 343°
2026-05-07 18:44 37.43555 25.34674 407 ft 4 kts 268°
2026-05-07 18:45 37.43546 25.34639 405 ft 2 kts 252°
2026-05-07 18:45 37.43543 25.34628 407 ft 0 kts 252°